{"data":{"norad_id":49029,"epoch":"2026-05-25T03:43:45.717600Z","epoch_age_seconds":58047,"freshness":"FRESH","line1":"1 49029U 21065D   26145.15539025  .00002499  00000+0  18629-3 0  9998","line2":"2 49029  34.9953  53.0071 0002776  59.0437 301.0544 15.02556501265195","mean_motion":15.02556501,"eccentricity":0.0002776,"inclination_deg":34.9953,"raan_deg":53.0071,"arg_perigee_deg":59.0437,"mean_anomaly_deg":301.0544,"bstar":0.00018629,"rev_number":26519,"period_min":95.836662317965,"perigee_km":557.0906781646,"apogee_km":560.94218575002,"semimajor_km":6937.1534319573,"source":"CELESTRAK","updated_at":"2026-05-25T13:37:57.047646Z"}}